Location: Earls Croome
(52.0667°N, 2.2000°W)
Time: 21:14:51
(UTC+00:00)

Cosmos 2237 - Pass Details

Date: 17 November 2019
Orbit: 845 x 857 km, 70.8° (Epoch: 07 December)

Event Time Altitude Azimuth Distance (km) Brightness Sun altitude
Exits shadow 06:11:35 - 324° (NW) 2,622 6.3 -12.1°
Reaches altitude 10° 06:11:55 10° 323° (NW) 2,501 6.2 -12.1°
Maximum altitude 06:17:32 57° 246° (WSW) 1,003 4.4 -11.3°
Drops below altitude 10° 06:23:05 10° 170° (S) 2,477 7.0 -10.4°
Sets 06:25:33 0° 166° (SSE) 3,407 7.8 -10.1°
